DW8295 Weather Reports


Display with metric or nautical units.
time (UTC)temp
F
wind
direction
speed
MPH
gust
MPH
rain 1hr
in
rain 24hr
in
rain mn
in
humidity
%
barometer
mb
20260508225742 56 355 2.0 11.0 0.00 0.00 0.00 39 1008.4
20260508225242 56 342 2.0 11.0 0.00 0.00 0.00 37 1008.2
20260508225003 56 325 1.0 6.0 0.00 0.00 0.00 38 1008.2
20260508224505 56 280 2.0 10.0 0.00 0.00 0.00 38 1008.2
20260508223744 56 263 2.0 10.0 0.00 0.00 0.00 38 1008.2
20260508223244 56 293 2.0 9.0 0.00 0.00 0.00 37 1008.1
20260508222743 56 270 3.0 10.0 0.00 0.00 0.00 38 1008.2
20260508222237 56 329 4.0 14.0 0.00 0.00 0.00 37 1008.1
20260508221731 56 293 4.0 14.0 0.00 0.00 0.00 36 1008.1
20260508221225 57 317 4.0 10.0 0.00 0.00 0.00 35 1008.0
20260508220719 58 258 4.0 12.0 0.00 0.00 0.00 37 1007.9
20260508220214 57 305 4.0 12.0 0.00 0.00 0.00 36 1007.9
20260508215710 56 298 3.0 12.0 0.00 0.00 0.00 37 1007.9
20260508215433 56 348 3.0 12.0 0.00 0.00 0.00 38 1007.8
20260508214934 57 272 3.0 12.0 0.00 0.00 0.00 37 1007.9
20260508214211 58 315 5.0 16.0 0.00 0.00 0.00 36 1007.9
20260508213928 59 346 6.0 16.0 0.00 0.00 0.00 35 1007.7
20260508213210 59 301 5.0 13.0 0.00 0.00 0.00 35 1007.7
20260508212709 59 304 4.0 10.0 0.00 0.00 0.00 34 1007.7
20260508212209 59 320 5.0 15.0 0.00 0.00 0.00 36 1007.7
20260508211709 58 304 6.0 15.0 0.00 0.00 0.00 36 1007.6
20260508211208 58 349 5.0 14.0 0.00 0.00 0.00 35 1007.6
20260508210931 59 267 5.0 14.0 0.00 0.00 0.00 36 1007.6
20260508210209 59 324 5.0 12.0 0.00 0.00 0.00 36 1007.5
20260508205709 59 0 5.0 14.0 0.00 0.00 0.00 35 1007.4
20260508205434 59 190 6.0 18.0 0.00 0.00 0.00 36 1007.4
20260508204709 58 299 6.0 19.0 0.00 0.00 0.00 37 1007.4
20260508204439 58 286 5.0 19.0 0.00 0.00 0.00 38 1007.3
20260508203708 57 307 6.0 15.0 0.00 0.00 0.00 38 1007.3
20260508203202 57 234 6.0 15.0 0.00 0.00 0.00 37 1007.3
20260508202658 57 284 5.0 14.0 0.00 0.00 0.00 38 1007.2
20260508202154 57 289 4.0 14.0 0.00 0.00 0.00 40 1007.2
20260508201917 57 228 6.0 14.0 0.00 0.00 0.00 39 1007.1
20260508201154 57 296 7.0 17.0 0.00 0.00 0.00 38 1007.1
20260508200656 57 318 7.0 17.0 0.00 0.00 0.00 37 1007.0
20260508200154 57 328 5.0 14.0 0.00 0.00 0.00 37 1006.9
20260508195914 57 321 5.0 12.0 0.00 0.00 0.00 36 1006.9
20260508195155 57 315 4.0 11.0 0.00 0.00 0.00 37 1006.8
20260508194655 57 301 4.0 14.0 0.00 0.00 0.00 38 1006.7
20260508194154 57 319 6.0 16.0 0.00 0.00 0.00 37 1006.6
20260508193654 57 355 6.0 16.0 0.00 0.00 0.00 38 1006.6
20260508193154 57 285 5.0 15.0 0.00 0.00 0.00 37 1006.7
20260508192654 57 281 5.0 11.0 0.00 0.00 0.00 35 1006.6
20260508192152 58 277 4.0 12.0 0.00 0.00 0.00 36 1006.6
20260508191653 58 314 3.0 12.0 0.00 0.00 0.00 35 1006.5
20260508191154 58 300 2.0 9.0 0.00 0.00 0.00 35 1006.4
20260508190919 58 290 2.0 7.0 0.00 0.00 0.00 36 1006.4
20260508190153 58 256 1.0 6.0 0.00 0.00 0.00 34 1006.4
20260508185652 58 288 1.0 6.0 0.00 0.00 0.00 34 1006.3
20260508185419 58 261 2.0 8.0 0.00 0.00 0.00 35 1006.3
20260508184651 58 255 4.0 10.0 0.00 0.00 0.00 34 1006.3
20260508184150 58 261 3.0 11.0 0.00 0.00 0.00 34 1006.4
20260508183646 58 328 2.0 11.0 0.00 0.00 0.00 37 1006.3
20260508183146 58 254 1.0 6.0 0.00 0.00 0.00 36 1006.3
20260508182646 58 346 2.0 9.0 0.00 0.00 0.00 38 1006.3
20260508182148 58 349 2.0 9.0 0.00 0.00 0.00 38 1006.4
20260508181647 58 272 3.0 8.0 0.00 0.00 0.00 38 1006.4
20260508181454 58 334 3.0 9.0 0.00 0.00 0.00 38 1006.3
20260508181346 58 317 2.0 9.0 0.00 0.00 0.00 39 1006.3
20260508180146 58 30 2.0 11.0 0.00 0.00 0.00 39 1006.3
20260508180127 58 268 5.0 11.0 0.00 0.00 0.00 39 1006.2
20260508175144 58 302 5.0 15.0 0.00 0.00 0.00 37 1006.3
20260508174644 58 312 4.0 15.0 0.00 0.00 0.00 35 1006.3
20260508174142 58 331 2.0 9.0 0.00 0.00 0.00 35 1006.3
20260508173643 57 332 3.0 10.0 0.00 0.00 0.00 39 1006.2
20260508173142 57 315 4.0 10.0 0.00 0.00 0.00 37 1006.3
20260508172643 57 324 4.0 11.0 0.00 0.00 0.00 38 1006.4
20260508172142 57 320 3.0 11.0 0.00 0.00 0.00 39 1006.4
20260508171643 57 318 3.0 12.0 0.00 0.00 0.00 40 1006.3
20260508171143 57 335 4.0 12.0 0.00 0.00 0.00 37 1006.4
20260508170639 58 355 4.0 12.0 0.00 0.00 0.00 35 1006.3
20260508170140 58 287 4.0 12.0 0.00 0.00 0.00 34 1006.3
20260508170135 58 284 5.0 13.0 0.00 0.00 0.00 35 1006.3
20260508165138 59 244 6.0 13.0 0.00 0.00 0.00 33 1006.3
20260508164638 59 291 6.0 13.0 0.00 0.00 0.00 34 1006.3
20260508164138 59 277 6.0 15.0 0.00 0.00 0.00 35 1006.3
20260508163904 59 265 6.0 15.0 0.00 0.00 0.00 36 1006.4
20260508163138 58 265 5.0 13.0 0.00 0.00 0.00 34 1006.4
20260508162638 58 286 4.0 13.0 0.00 0.00 0.00 35 1006.4
20260508162138 58 214 3.0 13.0 0.00 0.00 0.00 35 1006.4
20260508161639 58 271 2.0 10.0 0.00 0.00 0.00 37 1006.3
20260508161137 58 261 3.0 9.0 0.00 0.00 0.00 38 1006.5
20260508160636 58 261 1.0 9.0 0.00 0.00 0.00 37 1006.4
20260508160135 58 279 3.0 11.0 0.00 0.00 0.00 37 1006.4
20260508155635 58 17 5.0 12.0 0.00 0.00 0.00 37 1006.4
20260508155134 58 281 4.0 12.0 0.00 0.00 0.00 37 1006.4
20260508154634 58 323 4.0 12.0 0.00 0.00 0.00 35 1006.4
20260508154135 58 313 4.0 12.0 0.00 0.00 0.00 37 1006.5
20260508153634 58 203 4.0 13.0 0.00 0.00 0.00 38 1006.5
20260508153134 58 232 5.0 14.0 0.00 0.00 0.00 37 1006.6
20260508152634 57 258 2.0 14.0 0.00 0.00 0.00 38 1006.6
20260508152135 57 332 2.0 8.0 0.00 0.00 0.00 37 1006.7
20260508151632 58 330 3.0 12.0 0.00 0.00 0.00 36 1006.7
20260508151133 58 279 3.0 12.0 0.00 0.00 0.00 36 1006.8
20260508150632 58 314 3.0 12.0 0.00 0.00 0.00 37 1006.8
20260508150132 58 262 4.0 12.0 0.00 0.00 0.00 38 1006.8
20260508145627 57 355 5.0 12.0 0.00 0.00 0.00 39 1006.9
20260508145120 57 332 4.0 12.0 0.00 0.00 0.00 38 1006.9
20260508144614 58 338 4.0 11.0 0.00 0.00 0.00 37 1006.9
20260508144107 58 9 5.0 11.0 0.00 0.00 0.00 36 1006.9
20260508143601 57 321 6.0 14.0 0.00 0.00 0.00 39 1006.9
20260508143322 57 242 6.0 14.0 0.00 0.00 0.00 37 1007.0
20260508142600 57 346 5.0 13.0 0.00 0.00 0.00 37 1007.0
20260508142100 57 301 5.0 12.0 0.00 0.00 0.00 39 1007.1
20260508141600 56 296 5.0 12.0 0.00 0.00 0.00 40 1007.1
20260508141101 56 294 5.0 14.0 0.00 0.00 0.00 40 1007.2
20260508140824 56 250 5.0 14.0 0.00 0.00 0.00 42 1007.3
20260508140101 55 263 5.0 12.0 0.00 0.00 0.00 43 1007.1
20260508135600 55 296 6.0 14.0 0.00 0.00 0.00 42 1007.3
20260508135058 56 334 5.0 14.0 0.00 0.00 0.00 42 1007.4
20260508134558 55 336 4.0 12.0 0.00 0.00 0.00 43 1007.4
20260508134058 55 307 5.0 12.0 0.00 0.00 0.00 42 1007.4
20260508133559 55 319 4.0 12.0 0.00 0.00 0.00 45 1007.4
20260508133058 55 350 4.0 12.0 0.00 0.00 0.00 46 1007.4
20260508132827 54 327 4.0 10.0 0.00 0.00 0.00 45 1007.4
20260508132325 55 328 4.0 10.0 0.00 0.00 0.00 46 1007.6
20260508131555 55 355 3.0 10.0 0.00 0.00 0.00 47 1007.6
20260508131055 55 282 3.0 11.0 0.00 0.00 0.00 49 1007.6
20260508130548 54 309 3.0 11.0 0.00 0.00 0.00 47 1007.6
20260508130043 54 283 3.0 9.0 0.00 0.00 0.00 49 1007.6
20260508125733 53 221 2.0 8.0 0.00 0.00 0.00 47 1007.6
20260508125622 53 275 2.0 8.0 0.00 0.00 0.00 49 1007.6
20260508124525 53 320 2.0 8.0 0.00 0.00 0.00 50 1007.6
20260508124018 53 254 3.0 9.0 0.00 0.00 0.00 49 1007.6
20260508123513 53 257 2.0 9.0 0.00 0.00 0.00 51 1007.7
20260508123227 52 266 2.0 7.0 0.00 0.00 0.00 51 1007.7
20260508122501 52 219 2.0 7.0 0.00 0.00 0.00 53 1007.7
20260508121954 52 239 2.0 7.0 0.00 0.00 0.00 52 1007.7
20260508121449 51 249 2.0 7.0 0.00 0.00 0.00 53 1007.7
20260508120944 51 347 1.0 7.0 0.00 0.00 0.00 54 1007.8
20260508120444 51 249 1.0 7.0 0.00 0.00 0.00 54 1007.7
20260508115943 50 285 1.0 7.0 0.00 0.00 0.00 56 1007.7
20260508115444 49 279 2.0 7.0 0.00 0.00 0.00 57 1007.7
20260508115210 49 270 3.0 8.0 0.00 0.00 0.00 58 1007.7
20260508114444 48 271 3.0 9.0 0.00 0.00 0.00 60 1007.8
20260508113944 47 273 2.0 9.0 0.00 0.00 0.00 59 1007.8
20260508113444 47 232 2.0 9.0 0.00 0.00 0.00 61 1007.9
20260508112944 46 281 1.0 7.0 0.00 0.00 0.00 61 1007.8
20260508112443 46 301 1.0 7.0 0.00 0.00 0.00 61 1007.7
20260508112201 46 271 2.0 7.0 0.00 0.00 0.00 62 1007.7
20260508111700 45 273 2.0 8.0 0.00 0.00 0.00 64 1007.7
20260508110940 44 252 1.0 8.0 0.00 0.00 0.00 65 1007.7
20260508110441 43 293 0.0 4.0 0.00 0.00 0.00 67 1007.7
20260508110200 43 289 0.0 4.0 0.00 0.00 0.00 68 1007.3
20260508105432 42 311 0.0 4.0 0.00 0.00 0.00 69 1007.6
20260508104927 42 311 0.0 4.0 0.00 0.00 0.00 70 1007.6
20260508104420 41 317 0.0 2.0 0.00 0.00 0.00 71 1007.6
20260508103915 40 317 0.0 3.0 0.00 0.00 0.00 72 1007.5
20260508103409 40 317 0.0 3.0 0.00 0.00 0.00 73 1007.4
20260508102902 39 317 0.0 1.0 0.00 0.00 0.00 74 1007.4
20260508102357 39 317 0.0 1.0 0.00 0.00 0.00 76 1007.4
20260508101850 38 317 0.0 1.0 0.00 0.00 0.00 77 1007.3
20260508101346 38 317 0.0 0.0 0.00 0.00 0.00 79 1007.2
20260508101056 38 317 0.0 0.0 0.00 0.00 0.00 78 1007.1
20260508100552 38 317 0.0 0.0 0.00 0.00 0.00 78 1007.1
20260508095827 38 317 0.0 0.0 0.00 0.00 0.00 78 1007.1
20260508095550 37 317 0.0 0.0 0.00 0.00 0.00 79 1007.1
20260508094814 37 317 0.0 0.0 0.00 0.00 0.00 78 1007.0
20260508094309 37 317 0.0 0.0 0.00 0.00 0.00 78 1007.0
20260508093804 37 317 0.0 0.0 0.00 0.00 0.00 78 1006.9
20260508093257 37 317 0.0 0.0 0.00 0.00 0.00 78 1006.9
20260508092750 37 317 0.0 0.0 0.00 0.00 0.00 78 1006.8
20260508092244 37 317 0.0 2.0 0.00 0.00 0.00 77 1006.7
20260508091739 37 317 0.0 2.0 0.00 0.00 0.00 77 1006.6
20260508091449 37 317 0.0 1.0 0.00 0.00 0.00 77 1006.6
20260508090726 37 317 0.0 1.0 0.00 0.00 0.00 76 1006.5
20260508090221 38 317 0.0 0.0 0.00 0.00 0.00 76 1006.4
20260508085935 38 317 0.0 0.0 0.00 0.00 0.00 76 1006.2
20260508085208 38 317 0.0 0.0 0.00 0.00 0.00 76 1006.2
20260508084702 38 317 0.0 0.0 0.00 0.00 0.00 77 1006.2
20260508084156 38 317 0.0 0.0 0.00 0.00 0.00 77 1006.1
20260508083650 38 317 0.0 0.0 0.00 0.00 0.00 77 1006.1
20260508083144 38 317 0.0 0.0 0.00 0.00 0.00 77 1006.0
20260508082639 39 317 0.0 0.0 0.00 0.00 0.00 76 1006.1
20260508082132 39 317 0.0 0.0 0.00 0.00 0.00 75 1006.1
20260508081628 39 317 0.0 0.0 0.00 0.00 0.00 75 1006.0
20260508081120 39 317 0.0 0.0 0.00 0.00 0.00 74 1006.0
20260508080615 39 317 0.0 0.0 0.00 0.00 0.00 74 1006.0
20260508080108 39 317 0.0 0.0 0.00 0.00 0.00 74 1006.0
20260508075603 39 317 0.0 0.0 0.00 0.00 0.00 74 1005.9
20260508075056 39 317 0.0 0.0 0.00 0.00 0.00 73 1005.9
20260508074551 39 317 0.0 0.0 0.00 0.00 0.00 73 1005.8
20260508074044 40 317 0.0 0.0 0.00 0.00 0.00 72 1005.8
20260508073539 40 317 0.0 0.0 0.00 0.00 0.00 71 1005.9
20260508073032 40 317 0.0 0.0 0.00 0.00 0.00 71 1005.8
20260508072749 40 317 0.0 0.0 0.00 0.00 0.00 70 1005.8
20260508072021 41 317 0.0 0.0 0.00 0.00 0.00 70 1005.8
20260508071731 41 317 0.0 0.0 0.00 0.00 0.00 69 1005.8
20260508071010 41 317 0.0 0.0 0.00 0.00 0.00 69 1005.8
20260508070502 42 317 0.0 0.0 0.00 0.00 0.00 67 1005.8
20260508065956 42 317 0.0 0.0 0.00 0.00 0.00 66 1005.7
20260508065715 43 317 0.0 0.0 0.00 0.00 0.00 65 1005.7
20260508064945 43 317 0.0 0.0 0.00 0.00 0.00 64 1005.7
20260508064438 43 317 0.0 0.0 0.00 0.00 0.00 64 1005.7
20260508064154 44 317 0.0 1.0 0.00 0.00 0.00 63 1005.8
20260508063426 44 317 0.0 1.0 0.00 0.00 0.00 64 1005.8
20260508062920 45 317 0.0 0.0 0.00 0.00 0.00 64 1006.0
20260508062414 45 317 0.0 0.0 0.00 0.00 0.00 59 1006.0
20260508061908 46 317 0.0 3.0 0.00 0.00 0.00 58 1006.0
20260508061404 46 317 0.0 4.0 0.00 0.00 0.00 57 1006.0
20260508061122 46 315 1.0 7.0 0.00 0.00 0.00 56 1006.0
20260508060350 46 302 1.0 8.0 0.00 0.00 0.00 56 1006.0
20260508055844 46 318 1.0 8.0 0.00 0.00 0.00 55 1005.9
20260508055338 46 341 1.0 6.0 0.00 0.00 0.00 56 1006.0
20260508054833 47 342 1.0 8.0 0.00 0.00 0.00 56 1006.1
20260508054550 46 321 1.0 8.0 0.00 0.00 0.00 55 1006.1
20260508053821 46 309 1.0 8.0 0.00 0.00 0.00 55 1006.1
20260508053315 46 303 1.0 5.0 0.00 0.01 0.00 56 1006.2
20260508052808 47 331 0.0 4.0 0.00 0.01 0.00 55 1006.3
20260508052306 47 331 0.0 4.0 0.00 0.01 0.00 54 1006.3
20260508051757 47 338 0.0 3.0 0.00 0.01 0.00 55 1006.4
20260508051252 47 338 0.0 5.0 0.00 0.01 0.00 55 1006.5
20260508050744 47 338 0.0 5.0 0.00 0.01 0.00 54 1006.5
20260508050238 47 307 0.0 5.0 0.00 0.01 0.00 55 1006.6
20260508045733 47 329 0.0 4.0 0.00 0.01 0.00 56 1006.6
20260508045227 47 326 0.0 3.0 0.00 0.01 0.00 58 1006.6
20260508044721 47 326 0.0 3.0 0.00 0.02 0.00 57 1006.6
20260508044214 47 326 0.0 2.0 0.00 0.02 0.00 58 1006.6
20260508043927 47 326 0.0 2.0 0.00 0.02 0.00 59 1006.6
20260508043202 47 326 0.0 4.0 0.00 0.02 0.00 58 1006.6
20260508042656 47 326 0.0 4.0 0.00 0.03 0.00 58 1006.5
20260508042151 47 325 0.0 2.0 0.00 0.03 0.00 56 1006.6
20260508041645 47 325 0.0 3.0 0.00 0.03 0.00 57 1006.6
20260508041405 47 325 0.0 3.0 0.00 0.03 0.00 58 1006.6
20260508040633 47 325 0.0 1.0 0.00 0.03 0.00 55 1006.6
20260508040604 48 325 0.0 0.0 0.00 0.03 0.00 56 1006.6
20260508035626 48 325 0.0 3.0 0.00 0.04 0.03 53 1006.6
20260508035125 48 325 0.0 3.0 0.00 0.04 0.03 53 1006.5
20260508034625 49 333 0.0 2.0 0.00 0.04 0.03 52 1006.6
20260508034125 49 333 0.0 2.0 0.00 0.04 0.03 51 1006.5
20260508033847 49 333 0.0 0.0 0.00 0.04 0.03 51 1006.6
20260508033125 50 333 0.0 0.0 0.00 0.05 0.03 50 1006.6
20260508032853 50 333 0.0 2.0 0.00 0.05 0.03 50 1006.6
20260508032125 51 333 0.0 3.0 0.00 0.05 0.03 47 1006.6
20260508031625 51 333 0.0 3.0 0.00 0.05 0.03 47 1006.5
20260508031127 51 333 0.0 3.0 0.00 0.05 0.03 47 1006.5
20260508030625 51 333 0.0 3.0 0.00 0.05 0.03 46 1006.6
20260508030125 51 333 0.0 4.0 0.00 0.05 0.03 47 1006.7
20260508025848 51 333 1.0 4.0 0.00 0.05 0.03 46 1006.6
20260508025125 52 333 0.0 5.0 0.00 0.05 0.03 45 1006.6
20260508024625 52 332 1.0 5.0 0.00 0.05 0.03 45 1006.5
20260508024125 52 5 1.0 9.0 0.00 0.05 0.03 45 1006.5
20260508023625 52 317 1.0 9.0 0.00 0.05 0.03 44 1006.5
20260508023350 52 355 1.0 9.0 0.00 0.05 0.03 44 1006.5
20260508022623 53 333 1.0 9.0 0.00 0.05 0.03 44 1006.3
20260508022116 53 0 1.0 3.0 0.00 0.05 0.03 44 1006.2
20260508021843 53 0 1.0 6.0 0.00 0.05 0.03 44 1006.2
20260508021105 54 0 2.0 10.0 0.00 0.05 0.03 43 1006.1
20260508020559 54 341 1.0 10.0 0.00 0.05 0.03 42 1006.1
20260508020053 54 26 1.0 6.0 0.00 0.05 0.03 41 1006.0
20260508015546 54 347 2.0 8.0 0.00 0.05 0.03 40 1005.9
20260508015041 55 350 2.0 8.0 0.00 0.05 0.03 40 1005.8
20260508014534 55 355 2.0 8.0 0.00 0.05 0.03 39 1005.8
20260508014028 55 26 3.0 10.0 0.00 0.05 0.03 40 1005.7
20260508013748 55 329 4.0 10.0 0.00 0.05 0.03 39 1005.6
20260508013243 55 336 3.0 10.0 0.00 0.05 0.03 39 1005.6
20260508012510 55 333 2.0 6.0 0.00 0.05 0.03 39 1005.5
20260508012003 56 344 2.0 8.0 0.00 0.05 0.03 40 1005.4
20260508011456 56 321 1.0 8.0 0.00 0.05 0.03 40 1005.3
20260508010951 55 329 1.0 6.0 0.00 0.05 0.03 40 1005.4
20260508010924 55 301 1.0 5.0 0.00 0.05 0.03 41 1005.3
20260508005938 55 318 1.0 5.0 0.00 0.05 0.03 41 1005.2
20260508005656 55 275 0.0 3.0 0.00 0.05 0.03 44 1005.2
20260508004926 55 271 0.0 2.0 0.00 0.05 0.03 48 1005.2
20260508004420 55 271 0.0 0.0 0.00 0.05 0.03 50 1005.2
20260508003914 56 271 0.0 0.0 0.00 0.06 0.03 48 1005.0
20260508003408 56 271 0.0 0.0 0.00 0.06 0.03 44 1004.9
20260508003126 56 271 0.0 2.0 0.00 0.06 0.03 44 1004.8
20260508002357 56 271 0.0 2.0 0.00 0.06 0.03 42 1004.7
20260508001851 57 271 0.0 1.0 0.00 0.06 0.03 41 1004.5
20260508001344 57 271 0.0 1.0 0.00 0.06 0.03 41 1004.5
20260508000840 57 270 0.0 1.0 0.00 0.06 0.03 40 1004.4
20260508000334 57 270 0.0 1.0 0.00 0.06 0.03 39 1004.4
20260507235826 58 270 0.0 3.0 0.00 0.06 0.03 39 1004.4
20260507235546 58 269 0.0 3.0 0.00 0.06 0.03 38 1004.3
20260507234814 58 270 0.0 4.0 0.00 0.06 0.03 38 1004.3
20260507234307 58 270 1.0 8.0 0.00 0.06 0.03 37 1004.2
20260507233806 58 253 2.0 8.0 0.00 0.06 0.03 36 1004.2
20260507233753 59 263 2.0 9.0 0.00 0.06 0.03 36 1004.2
20260507232807 59 294 3.0 11.0 0.00 0.06 0.03 36 1004.2
20260507232306 59 298 2.0 11.0 0.00 0.06 0.03 35 1004.2
20260507232023 59 289 2.0 9.0 0.00 0.06 0.03 36 1004.2
20260507231303 60 287 3.0 11.0 0.00 0.06 0.03 36 1004.0
20260507230801 60 324 3.0 11.0 0.00 0.06 0.03 35 1004.0
20260507230302 60 227 3.0 10.0 0.00 0.06 0.03 36 1003.9